Content
SEND FEEDBACK

Daily
Averages
Monthly
Summary
Czech Republic

PRAGUE, CZECH REPUBLIC


Home > Europe > Czech Republic
Elevation: 1184 feet     Latitude: 50 06N     Longitude: 014 15E

WEATHER
 
SELECT A DAY
Number of Records: 319,765;   Date Range: 7/1/96 - 7/9/14
 
SHARE

PRINT THIS DATA

[ ← Previous Day ]
WEATHER ALMANAC - FEBRUARY 8, 2014
[ Next Day → ]
[ °C ]   °F
Weather ElementAverageHighLow
Temperature41.3 °F48.2 °F (12:30 pm)33.8 °F (7:30 am)
Dewpoint32.3 °F35.6 °F (8:00 pm)29 °F (3:00 pm)
Humidity68.3 %87 % (7:30 am)35 % (3:00 pm)
Barometer29.60 in29.79 in (4:00 am)29.42 in (10:30 pm)
Wind Speed8.4 mph13.8 mph (3:00 am)
Weather ElementAverage
Visibility27.7 mi
Wind DirectionS (178.7 °)

Weather ElementTotal
Precipitation---
Heating Degree Days24 (Base 65)
Averaged from 71 records on February 8, 2014
WEATHER CONDITIONS BREAKOUT
WIND DIRECTION BREAKOUT
WEATHER BY HOUR - FEBRUARY 8, 2014
[ °C ]   °F
Local TimeTemperatureDewpointHumidityBarometerVisibilityWind DirectionWind SpeedGust SpeedPrecipitationEventsConditions
12:00 AM41.0 °F33.8 °F76 %29.71 inSW (220°)12.7 mphClear
12:30 AM41.0 °F32.0 °F70 %29.71 inSW (220°)10.4 mphClear
1:00 AM40.0 °F31.0 °F62 %29.76 in25.0 miSW (230°)11.2 mphMostly Cloudy
1:00 AM39.2 °F32.0 °F75 %29.71 inSW (230°)11.5 mphClear
1:30 AM39.2 °F32.0 °F75 %29.71 inSW (220°)8.1 mphClear
2:00 AM40.0 °F31.0 °F62 %29.77 in25.0 miWSW (240°)11.2 mphMostly Cloudy
2:00 AM41.0 °F32.0 °F70 %29.71 inSW (230°)11.5 mphClear
2:30 AM37.4 °F32.0 °F81 %29.74 inSW (220°)11.5 mphClear
3:00 AM39.2 °F32.0 °F75 %29.71 in6.2 miSW (230°)13.8 mphPartly Cloudy
3:00 AM40.0 °F31.0 °F62 %29.78 in25.0 miWSW (240°)11.2 mphScattered Clouds
3:30 AM39.2 °F32.0 °F75 %29.74 in6.2 miSW (220°)10.4 mphPartly Cloudy
4:00 AM36.0 °F30.0 °F72 %29.79 in25.0 miSW (220°)8.9 mphMostly Cloudy
4:00 AM35.6 °F30.2 °F81 %29.71 inSW (220°)11.5 mphClear
4:30 AM37.4 °F30.2 °F75 %29.71 inSSW (210°)11.5 mphClear
5:00 AM37.0 °F31.0 °F71 %29.77 in25.0 miSW (230°)11.2 mphMostly Cloudy
5:00 AM37.4 °F30.2 °F75 %29.71 inSW (220°)6.9 mphClear
5:30 AM37.4 °F30.2 °F75 %29.71 inSSW (210°)11.5 mphClear
6:00 AM37.4 °F30.2 °F75 %29.71 inSSW (210°)11.5 mphClear
6:00 AM36.0 °F31.0 °F75 %29.76 in25.0 miSW (220°)13.4 mphScattered Clouds
6:30 AM35.6 °F30.2 °F81 %29.71 inSouth (170°)4.6 mphClear
7:00 AM36.0 °F31.0 °F76 %29.76 in25.0 miSouth (190°)6.7 mphScattered Clouds
7:00 AM35.6 °F30.2 °F81 %29.71 inSouth (190°)6.9 mphClear
7:30 AM33.8 °F30.2 °F87 %29.71 inSSW (200°)5.8 mphClear
8:00 AM34.0 °F30.0 °F79 %29.76 in44.0 miSSW (200°)6.7 mphScattered Clouds
8:00 AM33.8 °F30.2 °F87 %29.71 inSouth (190°)5.8 mphClear
8:30 AM37.4 °F30.2 °F75 %29.68 inSSE (160°)6.9 mphClear
9:00 AM39.2 °F32.0 °F75 %29.68 inSSE (150°)6.9 mphClear
9:00 AM39.0 °F32.0 °F67 %29.73 in44.0 miSSE (160°)4.5 mphScattered Clouds
9:30 AM41.0 °F32.0 °F70 %29.68 inSSE (160°)6.9 mphClear
10:00 AM42.0 °F33.0 °F59 %29.71 in37.0 miSSE (160°)6.7 mphClear
10:00 AM42.8 °F32.0 °F66 %29.65 inSSE (160°)8.1 mphClear
10:30 AM44.6 °F33.8 °F66 %29.65 inSSE (160°)10.4 mphClear
11:00 AM45.0 °F34.0 °F55 %29.68 in31.0 miSouth (180°)8.9 mphClear
11:00 AM44.6 °F33.8 °F66 %29.65 inSSE (160°)8.1 mphClear
11:30 AM44.6 °F33.8 °F66 %29.62 inSSE (160°)8.1 mphClear
12:00 PM46.4 °F33.8 °F62 %29.62 inSouth (170°)8.1 mphClear
12:00 PM46.0 °F34.0 °F52 %29.66 in31.0 miSouth (170°)4.5 mphClear
12:30 PM48.2 °F33.8 °F58 %29.59 inSE (140°)9.2 mphClear
1:00 PM48.0 °F33.0 °F44 %29.61 in31.0 miSouth (180°)8.9 mphScattered Clouds
1:01 PM48.2 °F32.0 °F54 %29.59 inSSE (160°)9.2 mphClear
1:30 PM48.2 °F32.0 °F54 %29.56 inSouth (170°)9.2 mphClear
2:00 PM48.0 °F31.0 °F40 %29.57 in31.0 miSSE (160°)6.7 mphScattered Clouds
2:00 PM48.2 °F32.0 °F54 %29.53 inSouth (170°)6.9 mphClear
2:30 PM46.4 °F30.2 °F53 %29.53 inSouth (170°)6.9 mphClear
3:00 PM48.2 °F30.2 °F50 %29.50 inSouth (170°)6.9 mphClear
3:00 PM48.0 °F29.0 °F35 %29.54 in31.0 miSouth (170°)6.7 mphScattered Clouds
3:30 PM46.4 °F30.2 °F53 %29.50 inSouth (180°)6.9 mphClear
4:00 PM46.0 °F31.0 °F44 %29.53 in31.0 miSSE (160°)4.5 mphScattered Clouds
4:00 PM46.4 °F32.0 °F57 %29.50 inSSE (150°)8.1 mphClear
4:30 PM44.6 °F30.2 °F57 %29.47 inSSE (150°)5.8 mphClear
5:00 PM43.0 °F29.0 °F47 %29.52 in31.0 miSE (140°)6.7 mphPartly Cloudy
5:00 PM42.8 °F30.2 °F61 %29.47 inSE (140°)5.8 mphClear
5:30 PM42.8 °F30.2 °F61 %29.47 inSE (140°)10.4 mphClear
6:00 PM42.8 °F32.0 °F66 %29.44 inSE (140°)12.7 mphClear
6:00 PM43.0 °F33.0 °F57 %29.49 in31.0 miSSE (150°)11.2 mphOvercast
6:30 PM42.8 °F33.8 °F70 %29.44 inSSE (160°)10.4 mphClear
7:00 PM42.0 °F34.0 °F65 %29.49 in31.0 miSSE (160°)8.9 mphOvercast
7:00 PM42.8 °F33.8 °F70 %29.44 inSSE (160°)11.5 mphClear
7:30 PM41.0 °F33.8 °F76 %29.44 inSSE (160°)8.1 mphClear
8:00 PM41.0 °F35.0 °F71 %29.50 in25.0 miSSE (150°)8.9 mphOvercast
8:00 PM41.0 °F35.6 °F81 %29.44 inSSE (150°)6.9 mphClear
8:30 PM41.0 °F35.6 °F81 %29.44 inSSE (160°)8.1 mphClear
9:00 PM41.0 °F35.6 °F81 %29.44 inSE (140°)9.2 mphClear
9:00 PM41.0 °F35.0 °F72 %29.49 in25.0 miSSE (150°)6.7 mphOvercast
9:30 PM39.2 °F35.6 °F87 %29.44 inSouth (170°)6.9 mphClear
10:00 PM40.0 °F35.0 °F76 %29.49 in25.0 miSouth (180°)6.7 mphOvercast
10:00 PM39.2 °F35.6 °F87 %29.44 inSSE (160°)4.6 mphClear
10:30 PM39.2 °F35.6 °F87 %29.42 inSE (140°)5.8 mphClear
11:00 PM40.0 °F35.0 °F76 %29.47 in25.0 miSouth (170°)4.5 mphOvercast
11:00 PM39.2 °F35.6 °F87 %29.42 inSSE (160°)6.9 mphClear
11:30 PM39.2 °F35.6 °F87 %29.42 inSSE (150°)8.1 mphClear
Hourly data recorded from LKPR, located miles away from Prague, Czech Republic







STORIES FROM OUR PARTNERS